981  
ASUS42 KFFC 171110  
RWRGA  
WEATHER ROUNDUP FOR GEORGIA  
NATIONAL WEATHER SERVICE PEACHTREE CITY GA  
700 AM EDT WED OCT 17 2018  
 
NOTE: "FAIR" INDICATES FEW OR NO CLOUDS BELOW 12,000 FEET WITH NO  
SIGNIFICANT WEATHER AND/OR S TO VISIBILITY
.  
 
* = USE WITH CAUTION. THE STATIONS MARKED WITH AN ASTERISK MAY NOT  
REPORT WEATHER SUCH AS PRECIPITATION, FOG, OR THUNDER AND ARE NOT  
QUALITY CONTROLLED BY NWS.  
 
THE REMARK "TC" DENOTES TEMPERATURE READING IN DEGREES CELSIUS.  
 
GAZ001>058-171200-  
NORTH GEORGIA  
 
CITY SKY/WX TMP DP RH WIND PRES REMARKS
 
ATLANTA CLOUDY 65 60 84 NW8 30.18R  
ATHENS MOCLDY 66 63 90 NW5 30.15R  
CHAMBLEE MOCLDY 64 60 87 NW7 30.18R  
PEACHTREE CITY CLOUDY 66 62 87 N5 30.19S  
ROME LGT RAIN 64 61 90 N3 30.21R  
WEST ATLANTA FAIR 64 62 93 NW6 30.19R  
GAINESVILLE CLOUDY 65 62 90 NW10 30.19R  
CARTERSVILLE CLOUDY 63 60 90 VRB3 30.21R  
 
 
CITY SKY/WX TMP DP RH WIND PRES REMARKS
 
DALTON* LGT RAIN 61 61 100 N7 30.24R  
LAWRENCEVILLE* CLOUDY 64 62 93 SW5 30.17R  
MARIETTA MOCLDY 64 60 87 NW7 30.19R  
KENNESAW* CLOUDY 62 60 93 NW8 30.20R  
CANTON* DRIZZLE 63 61 94 NW6 30.20R  
BLAIRSVILLE* CLOUDY 60 58 93 W5 30.24R  

 
 
GAZ059>098-102>109-171200-  
CENTRAL GEORGIA  
 
CITY SKY/WX TMP DP RH WIND PRES REMARKS
 
AUGUSTA-BUSH FAIR 68 68 100 CALM 30.09S  
AUGUSTA-DANIEL FAIR 71 66 84 NW5 30.12R  
COLUMBUS MOCLDY 70 66 87 N3 30.15R  
MACON FAIR 68 68 100 NW9 30.14R  
ROBINS AFB FAIR 68 67 99 NW7 30.13R  
 
 
CITY SKY/WX TMP DP RH WIND PRES REMARKS
 
LAGRANGE* CLOUDY 67 66 98 N3 30.19S  
SYLVANIA* CLOUDY 75 75 100 CALM 30.11S FOG  
MILLEDGEVILLE* MOCLDY 70 68 94 NW3 30.14S  

 
 
GAZ099>101-110>166-171200-  
SOUTH GEORGIA  
 
CITY SKY/WX TMP DP RH WIND PRES REMARKS
 
SAVANNAH FAIR 77 75 93 SW7 30.10S  
VALDOSTA FAIR 68 68 100 CALM 30.12R  
ALMA FOG 72 70 93 CALM 30.11S VSB 3/4  
ST SIMONS FAIR 77 74 90 SW6 30.11R  
FT STEWART FAIR 76 73 92 SW5 30.09R  
ALBANY FAIR 72 70 93 CALM 30.14R FOG  
HUNTER AFB FAIR 76 74 93 S8 30.08S  
MOODY AFB FAIR 71 71 100 CALM 30.11R  
BRUNSWICK FAIR 75 72 88 SW6 30.12R  
 
 
CITY SKY/WX TMP DP RH WIND PRES REMARKS
 
MOULTRIE* CLOUDY 70 68 94 CALM 30.14R FOG  
VIDALIA* FOG 73 70 88 CALM 30.12R VSB 1/2  
WAYCROSS* FAIR 72 69 90 CALM 30.12S  
DOUGLAS* FOG 72 70 94 CALM 30.14R VSB 3/4  

 
 
 
CLICK HERE TO GO TO PREVIOUS BULLETINS.

The Nexlab GA Page Main Text Page